Change the Weather History Date:

Monday, October 21, 2013

  Actual Average Record
Temperature  
Mean Temperature 58 °F -  
Max Temperature 64 °F 47 °F - ()
Min Temperature 51 °F 34 °F - ()
Degree Days  
Heating Degree Days 8    
Growing Degree Days 8 (Base 50)    
Moisture  
Dew Point 52 °F    
Average Humidity 85    
Maximum Humidity 100    
Minimum Humidity 62    
Precipitation  
Precipitation 0.00 in 0.04 in - ()
Sea Level Pressure  
Sea Level Pressure 30.06 in    
Wind  
Wind Speed 9 mph ()    
Max Wind Speed 17 mph    
Max Gust Speed -    
Visibility 6.7 miles    
Events      
T = Trace of Precipitation, MM = Missing Value Source: Averaged Metar Reports

Daily Weather History Graph

Daily Weather History Graph

Search for Another Location

Airport or City:

Trip Planner

Search our weather history database for the weather conditions in past years. The results will help you decide how hot, cold, wet, or windy it might be!

Date:

Astronomy

Oct. 21, 2013 Rise Set
Actual Time 7:34 AM CEST 5:59 PM CEST
Civil Twilight 7:01 AM CEST 6:32 PM CEST
Nautical Twilight 6:23 AM CEST 7:10 PM CEST
Astronomical Twilight 5:46 AM CEST 7:47 PM CEST
Moon 7:25 PM CEST (10/21) 10:06 AM CEST (10/21)
Length of Visible Light 11h 31m
Length of Day
10h 24m
Waning Gibbous, 94% of the Moon is Illuminated
Oct 21
Waning Gibbous
Oct 27
Last Quarter
Nov 3
New
Nov 10
First Quarter
Nov 17
Full

Hourly Weather History & Observations

Time (CEST) Temp. Dew Point Humidity Pressure Visibility Wind Dir Wind Speed Gust Speed Precip Events Conditions
12:00 AM 51.8 °F 51.8 °F 100% 30.06 in - SSW 5.8 mph - N/A   Clear
12:30 AM 51.8 °F 51.8 °F 100% 30.06 in 6.2 mi SSW 8.1 mph - N/A   Partly Cloudy
1:00 AM 53.6 °F 51.8 °F 94% 30.06 in 6.2 mi SSW 8.1 mph - N/A   Mostly Cloudy
1:30 AM 53.6 °F 53.6 °F 100% 30.06 in 6.2 mi SSW 6.9 mph - N/A   Mostly Cloudy
2:00 AM 53 °F 51 °F 92% 30.06 in 16 mi South 6.7 mph - -   Mostly Cloudy
2:00 AM 53.6 °F 51.8 °F 94% 30.04 in 6.2 mi South 6.9 mph - N/A   Scattered Clouds
2:30 AM 53.6 °F 51.8 °F 94% 30.04 in 6.2 mi SSW 8.1 mph - N/A   Scattered Clouds
3:00 AM 53.6 °F 51.8 °F 94% 30.04 in 6.2 mi SSW 11.5 mph - N/A   Scattered Clouds
3:30 AM 53.6 °F 51.8 °F 94% 30.04 in - SW 13.8 mph - N/A   Clear
4:00 AM 53.6 °F 51.8 °F 94% 30.04 in - SSW 12.7 mph - N/A   Clear
4:30 AM 51.8 °F 50.0 °F 94% 30.04 in - South 10.4 mph - N/A   Clear
5:00 AM 51.8 °F 50.0 °F 94% 30.04 in - SSW 9.2 mph - N/A   Clear
5:30 AM 51.8 °F 50.0 °F 94% 30.04 in - SW 6.9 mph - N/A   Clear
6:00 AM 51.8 °F 50.0 °F 94% 30.04 in - SW 11.5 mph - N/A   Clear
6:30 AM 51.8 °F 50.0 °F 94% 30.04 in - SSW 16.1 mph - N/A   Clear
7:00 AM 53.6 °F 51.8 °F 94% 30.04 in - SW 17.3 mph - N/A   Clear
7:30 AM 53.6 °F 51.8 °F 94% 30.04 in - SSW 17.3 mph - N/A   Clear
8:00 AM 53 °F 51 °F 92% 30.05 in 25 mi SW 13.4 mph - -   Mostly Cloudy
8:00 AM 53.6 °F 51.8 °F 94% 30.04 in - SSW 16.1 mph - N/A   Clear
8:30 AM 53.6 °F 51.8 °F 94% 30.06 in - SSW 16.1 mph - N/A   Clear
9:00 AM 55.4 °F 51.8 °F 88% 30.06 in - SSW 12.7 mph - N/A   Clear
9:30 AM 55.4 °F 53.6 °F 94% 30.06 in - SW 13.8 mph - N/A   Clear
10:00 AM 57.2 °F 53.6 °F 88% 30.06 in - SW 16.1 mph - N/A   Clear
10:30 AM 57.2 °F 51.8 °F 82% 30.06 in - SW 17.3 mph - N/A   Clear
11:00 AM 59.0 °F 53.6 °F 82% 30.06 in - SW 16.1 mph - N/A   Clear
11:30 AM 59.0 °F 51.8 °F 77% 30.06 in - WSW 13.8 mph - N/A   Clear
12:00 PM 60.8 °F 53.6 °F 77% 30.06 in 6.2 mi SW 12.7 mph - N/A   Partly Cloudy
12:30 PM 62.6 °F 53.6 °F 72% 30.09 in 6.2 mi WSW 10.4 mph - N/A   Partly Cloudy
1:00 PM 62.6 °F 53.6 °F 72% 30.06 in 6.2 mi WSW 11.5 mph - N/A   Partly Cloudy
1:30 PM 62.6 °F 51.8 °F 68% 30.06 in 6.2 mi West 10.4 mph - N/A   Partly Cloudy
2:00 PM 63 °F 53 °F 62% 30.06 in 47 mi West 8.9 mph - -   Scattered Clouds
2:00 PM 62.6 °F 53.6 °F 72% 30.06 in 6.2 mi West 13.8 mph - N/A   Partly Cloudy
2:30 PM 62.6 °F 53.6 °F 72% 30.06 in 6.2 mi WSW 11.5 mph - N/A   Partly Cloudy
3:00 PM 64.4 °F 53.6 °F 68% 30.06 in 6.2 mi WSW 13.8 mph - N/A   Partly Cloudy
3:30 PM 64.4 °F 53.6 °F 68% 30.04 in 6.2 mi WSW 15.0 mph - N/A   Partly Cloudy
4:00 PM 62.6 °F 53.6 °F 72% 30.06 in 6.2 mi WSW 10.4 mph - N/A   Partly Cloudy
4:30 PM 62.6 °F 53.6 °F 72% 30.06 in 6.2 mi SW 10.4 mph - N/A   Partly Cloudy
5:00 PM 62.6 °F 53.6 °F 72% 30.04 in 6.2 mi SSW 11.5 mph - N/A   Partly Cloudy
5:30 PM 60.8 °F 51.8 °F 72% 30.06 in 6.2 mi SW 9.2 mph - N/A   Partly Cloudy
6:00 PM 59.0 °F 51.8 °F 77% 30.06 in 6.2 mi SW 9.2 mph - N/A   Partly Cloudy
6:30 PM 59.0 °F 51.8 °F 77% 30.06 in - SSW 6.9 mph - N/A   Clear
7:00 PM 59.0 °F 51.8 °F 77% 30.06 in - South 6.9 mph - N/A   Clear
7:30 PM 57.2 °F 51.8 °F 82% 30.06 in - SSW 9.2 mph - N/A   Clear
8:00 PM 56 °F 52 °F 82% 30.08 in 31 mi SSW 6.7 mph - -   Mostly Cloudy
8:00 PM 57.2 °F 51.8 °F 82% 30.06 in - SSW 10.4 mph - N/A   Clear
8:30 PM 57.2 °F 51.8 °F 82% 30.06 in - South 6.9 mph - N/A   Clear
9:00 PM 57.2 °F 51.8 °F 82% 30.09 in - South 6.9 mph - N/A   Clear
9:30 PM 57.2 °F 51.8 °F 82% 30.06 in - South 6.9 mph - N/A   Clear
10:00 PM 55.4 °F 51.8 °F 88% 30.06 in - South 8.1 mph - N/A   Clear
10:30 PM 55.4 °F 51.8 °F 88% 30.06 in - South 9.2 mph - N/A   Clear
11:00 PM 55.4 °F 51.8 °F 88% 30.06 in - South 8.1 mph - N/A   Clear
11:30 PM 53.6 °F 50.0 °F 88% 30.06 in - South 5.8 mph - N/A   Clear